R1ZCU-14 Weather Reports


time (UTC)temp
C
wind
direction
speed
KPH
gust
KPH
rain 1hr
cm
rain 24hr
cm
rain mn
cm
humidity
%
barometer
mb
20260507034138 7 0.0 0.0 0.00 0.00 0.00 48 1006.2
20260507033137 9 0.0 0.0 0.00 0.00 0.00 43 1006.0
20260507032137 9 0.0 0.0 0.00 0.00 0.00 44 1005.6
20260507031136 8 0.0 0.0 0.00 0.00 0.00 45 1005.5
20260507030136 8 0.0 0.0 0.00 0.00 0.00 45 1005.5
20260507025135 8 0.0 0.0 0.00 0.00 0.00 48 1005.4
20260507024135 7 0.0 0.0 0.00 0.00 0.00 50 1005.4
20260507023134 7 0.0 0.0 0.00 0.00 0.00 52 1005.3
20260507022134 7 0.0 0.0 0.00 0.00 0.00 53 1005.5
20260507021133 6 0.0 0.0 0.00 0.00 0.00 58 1005.4
20260507020133 5 0.0 0.0 0.00 0.00 0.00 62 1005.4
20260507015132 5 0.0 0.0 0.00 0.00 0.00 69 1005.5
20260507014132 3 0.0 0.0 0.00 0.00 0.00 81 1005.5
20260507013132 1 0.0 0.0 0.00 0.00 0.00 97 1005.7
20260507012131 1 0.0 0.0 0.00 0.00 0.00 97 1005.8
20260507011131 1 0.0 0.0 0.00 0.00 0.00 99 1005.7
20260507010130 0 0.0 0.0 0.00 0.00 0.00 1005.7
20260507005129 0 0.0 0.0 0.00 0.00 0.00 1005.7
20260507004129 0 0.0 0.0 0.00 0.00 0.00 1005.8
20260507003128 0 0.0 0.0 0.00 0.00 0.00 1005.8
20260507002128 0 0.0 0.0 0.00 0.00 0.00 1005.7
20260507001127 0 0.0 0.0 0.00 0.00 0.00 1005.6
20260507000127 0 0.0 0.0 0.00 0.00 0.00 1005.6
20260506235127 0 0.0 0.0 0.00 0.00 0.00 1005.5
20260506234126 0 0.0 0.0 0.00 0.00 0.00 1005.5
20260506233126 0 0.0 0.0 0.00 0.00 0.00 98 1005.3
20260506232125 0 0.0 0.0 0.00 0.00 0.00 96 1005.4
20260506231125 0 0.0 0.0 0.00 0.00 0.00 92 1005.3
20260506230124 0 0.0 0.0 0.00 0.00 0.00 87 1005.3
20260506225124 1 0.0 0.0 0.00 0.00 0.00 83 1005.1
20260506224123 1 0.0 0.0 0.00 0.00 0.00 80 1005.0
20260506223123 1 0.0 0.0 0.00 0.00 0.00 82 1005.1
20260506222122 1 0.0 0.0 0.00 0.00 0.00 81 1005.0
20260506221122 1 0.0 0.0 0.00 0.00 0.00 81 1004.9
20260506220121 1 0.0 0.0 0.00 0.00 0.00 79 1004.9
20260506215121 1 0.0 0.0 0.00 0.00 0.00 80 1004.8
20260506214120 1 0.0 0.0 0.00 0.00 0.00 79 1004.8
20260506213120 1 0.0 0.0 0.00 0.00 0.00 80 1004.8
20260506212119 1 0.0 0.0 0.00 0.00 0.00 80 1004.7
20260506211119 1 0.0 0.0 0.00 0.00 0.00 81 1004.6
20260506210118 1 0.0 0.0 0.00 0.00 0.00 83 1004.5
20260506205118 1 0.0 0.0 0.00 0.00 0.00 85 1004.4
20260506204117 1 0.0 0.0 0.00 0.00 0.00 83 1004.4
20260506203117 1 0.0 0.0 0.00 0.00 0.00 82 1004.2
20260506202116 1 0.0 0.0 0.00 0.00 0.00 82 1004.2
20260506201116 1 0.0 0.0 0.00 0.00 0.00 80 1004.1
20260506200115 1 0.0 0.0 0.00 0.00 0.00 78 1004.1
20260506195115 1 0.0 0.0 0.00 0.00 0.00 77 1004.0
20260506194114 1 0.0 0.0 0.00 0.00 0.00 75 1003.9
20260506193114 1 0.0 0.0 0.00 0.00 0.00 74 1003.8
20260506192113 1 0.0 0.0 0.00 0.00 0.00 74 1003.8
20260506191112 2 0.0 0.0 0.00 0.00 0.00 73 1003.7
20260506190111 2 0.0 0.0 0.00 0.00 0.00 69 1003.6
20260506185111 2 0.0 0.0 0.00 0.00 0.00 68 1003.5
20260506184110 2 0.0 0.0 0.00 0.00 0.00 66 1003.4
20260506183110 2 0.0 0.0 0.00 0.00 0.00 65 1003.3
20260506182109 2 0.0 0.0 0.00 0.00 0.00 63 1003.3
20260506181109 2 0.0 0.0 0.00 0.00 0.00 61 1003.2
20260506180108 3 0.0 0.0 0.00 0.00 0.00 60 1003.2
20260506175108 3 0.0 0.0 0.00 0.00 0.00 59 1003.1
20260506174107 3 0.0 0.0 0.00 0.00 0.00 57 1003.0
20260506173107 3 0.0 0.0 0.00 0.00 0.00 58 1003.0
20260506172106 3 0.0 0.0 0.00 0.00 0.00 57 1003.0
20260506171106 3 0.0 0.0 0.00 0.00 0.00 58 1002.9
20260506170105 3 0.0 0.0 0.00 0.00 0.00 60 1002.9
20260506165105 3 0.0 0.0 0.00 0.00 0.00 62 1002.8
20260506164104 3 0.0 0.0 0.00 0.00 0.00 62 1002.7
20260506163104 4 0.0 0.0 0.00 0.00 0.00 61 1002.6
20260506162103 4 0.0 0.0 0.00 0.00 0.00 58 1002.5
20260506161103 4 0.0 0.0 0.00 0.00 0.00 57 1002.5
20260506155102 5 0.0 0.0 0.00 0.00 0.00 56 1002.3
20260506154101 5 0.0 0.0 0.00 0.00 0.00 51 1002.2
20260506153101 5 0.0 0.0 0.00 0.00 0.00 51 1002.1
20260506152100 5 0.0 0.0 0.00 0.00 0.00 50 1002.0
20260506151100 5 0.0 0.0 0.00 0.00 0.00 49 1001.9
20260506150059 5 0.0 0.0 0.00 0.00 0.00 48 1001.9
20260506145059 5 0.0 0.0 0.00 0.00 0.00 48 1001.8
20260506144058 5 0.0 0.0 0.00 0.00 0.00 47 1001.7
20260506143058 6 0.0 0.0 0.00 0.00 0.00 46 1001.7
20260506142057 6 0.0 0.0 0.00 0.00 0.00 46 1001.5
20260506141057 6 0.0 0.0 0.00 0.00 0.00 47 1001.5
20260506140056 6 0.0 0.0 0.00 0.00 0.00 48 1001.5
20260506135056 6 0.0 0.0 0.00 0.00 0.00 50 1001.2
20260506134055 6 0.0 0.0 0.00 0.00 0.00 49 1001.3
20260506133055 6 0.0 0.0 0.00 0.00 0.00 48 1001.3
20260506132055 6 0.0 0.0 0.00 0.00 0.00 48 1001.2
20260506131054 6 0.0 0.0 0.00 0.00 0.00 48 1001.1
20260506130054 6 0.0 0.0 0.00 0.00 0.00 49 1001.1
20260506125053 6 0.0 0.0 0.00 0.00 0.00 48 1001.0
20260506124053 5 0.0 0.0 0.00 0.00 0.00 50 1001.0
20260506123052 5 0.0 0.0 0.00 0.00 0.00 51 1001.0
20260506122052 6 0.0 0.0 0.00 0.00 0.00 51 1000.8
20260506121051 5 0.0 0.0 0.00 0.00 0.00 53 1000.7
20260506120051 5 0.0 0.0 0.00 0.00 0.00 60 1000.7
20260506115050 5 0.0 0.0 0.00 0.00 0.00 60 1000.7
20260506114050 6 0.0 0.0 0.00 0.00 0.00 49 1000.3
20260506113049 7 0.0 0.0 0.00 0.00 0.00 48 100.0
20260506112049 6 0.0 0.0 0.00 0.00 0.00 50 100.0
20260506111048 6 0.0 0.0 0.00 0.00 0.00 53 100.0
20260506110048 5 0.0 0.0 0.00 0.00 0.00 57 100.0
20260506105047 6 0.0 0.0 0.00 0.00 0.00 54 999.9
20260506104047 6 0.0 0.0 0.00 0.00 0.00 57 999.8
20260506103046 5 0.0 0.0 0.00 0.00 0.00 64 999.8
20260506102046 5 0.0 0.0 0.00 0.00 0.00 70 999.8
20260506101045 5 0.0 0.0 0.00 0.00 0.00 64 999.9
20260506100045 8 0.0 0.0 0.00 0.00 0.00 44 999.3
20260506095044 7 0.0 0.0 0.00 0.00 0.00 45 999.1
20260506094044 6 0.0 0.0 0.00 0.00 0.00 47 999.1
20260506093043 6 0.0 0.0 0.00 0.00 0.00 51 999.1
20260506092043 6 0.0 0.0 0.00 0.00 0.00 47 999.0
20260506091042 8 0.0 0.0 0.00 0.00 0.00 38 998.8
20260506090157 15 0.0 0.0 0.00 0.00 0.00 25 998.4
20260506090042 16 0.0 0.0 0.00 0.00 0.00 23 998.3
20260506085306 18 0.0 0.0 0.00 0.00 0.00 20 998.0
20260506084304 12 0.0 0.0 0.00 0.00 0.00 28 998.1
20260506083303 8 0.0 0.0 0.00 0.00 0.00 35 998.0
20260506082305 8 0.0 0.0 0.00 0.00 0.00 34 997.9
20260506081303 13 0.0 0.0 0.00 0.00 0.00 24 997.8
20260506080302 15 0.0 0.0 0.00 0.00 0.00 20 996.9
20260506073301 13 0.0 0.0 0.00 0.00 0.00 24 996.8
20260506072300 7 0.0 0.0 0.00 0.00 0.00 40 997.0
20260506071300 13 0.0 0.0 0.00 0.00 0.00 26 997.1
20260506070259 13 0.0 0.0 0.00 0.00 0.00 27 996.5
20260506062257 5 0.0 0.0 0.00 0.00 0.00 52 996.9
20260506061257 6 0.0 0.0 0.00 0.00 0.00 53 996.8
20260506060256 6 0.0 0.0 0.00 0.00 0.00 53 996.7
20260506051254 3 0.0 0.0 0.00 0.00 0.00 75 996.6
20260506050253 3 0.0 0.0 0.00 0.00 0.00 72 996.7
20260506044252 3 0.0 0.0 0.00 0.00 0.00 74 996.4
20260506043252 3 0.0 0.0 0.00 0.00 0.00 71 996.3
20260506042251 3 0.0 0.0 0.00 0.00 0.00 70 996.2
20260506041251 5 0.0 0.0 0.00 0.00 0.00 60 996.0
20260506040250 5 0.0 0.0 0.00 0.00 0.00 64 995.8
20260506035250 4 0.0 0.0 0.00 0.00 0.00 70 995.9